Wakefield, VA

5:48 AM EST on December 09, 2019 (GMT -0500)
Wakefield Municipal

Weather History for KAKQ - October, 2019

Change the Weather History Date:

Saturday, October 19, 2019

  Actual Average (KJGG) Record (KJGG)
Temperature  
Mean Temperature 52 °F -  
Max Temperature 70 °F 69 °F 109 °F (2007)
Min Temperature 37 °F 46 °F 33 °F (1976)
Degree Days  
Heating Degree Days 12    
Growing Degree Days 2 (Base 50)    
Moisture  
Dew Point 42 °F    
Average Humidity 70    
Maximum Humidity 93    
Minimum Humidity 36    
Precipitation  
Precipitation 0.00 in - - ()
Sea Level Pressure  
Sea Level Pressure 30.08 in    
Wind  
Wind Speed 1 mph (South)    
Max Wind Speed 7 mph    
Max Gust Speed -    
Visibility 10 miles    
Events      
Averages and records for this station are not official NWS values.
T = Trace of Precipitation, MM = Missing Value Source: NWS Daily Summary

Daily Weather History Graph

Daily Weather History Graph

Search for Another Location

Airport or City:

Astronomy

Oct. 19, 2019 Rise Set
Actual Time 7:19 AM EDT 6:26 PM EDT
Civil Twilight 6:52 AM EDT 6:52 PM EDT
Nautical Twilight 6:22 AM EDT 7:22 PM EDT
Astronomical Twilight 5:52 AM EDT 7:52 PM EDT
Moon 10:39 PM EDT (10/19) 12:43 PM EDT (10/19)
Length of Visible Light 11h 59m
Length of Day
11h 07m
Waning Gibbous, 70% of the Moon is Illuminated
Oct 19
Waning Gibbous
Oct 21
Last Quarter
Oct 27
New
Nov 4
First Quarter
Nov 12
Full

Hourly Weather History & Observations

Time (EDT) Temp. Dew Point Humidity Pressure Visibility Wind Dir Wind Speed Gust Speed Precip Events Conditions
12:54 AM 41.0 °F 37.9 °F 89% 30.07 in 10.0 mi Calm Calm - N/A   Clear
1:54 AM 39.9 °F 37.0 °F 89% 30.08 in 9.0 mi Calm Calm - N/A   Clear
2:54 AM 39.0 °F 37.0 °F 93% 30.08 in 10.0 mi Calm Calm - N/A   Clear
3:54 AM 39.0 °F 36.0 °F 89% 30.09 in 10.0 mi Calm Calm - N/A   Clear
4:54 AM 37.9 °F 36.0 °F 93% 30.10 in 10.0 mi Calm Calm - N/A   Clear
5:54 AM 37.9 °F 35.1 °F 89% 30.10 in 9.0 mi Calm Calm - N/A   Clear
6:54 AM 37.0 °F 35.1 °F 93% 30.10 in 9.0 mi Calm Calm - N/A   Clear
7:54 AM 39.0 °F 37.0 °F 93% 30.12 in 10.0 mi Calm Calm - N/A   Clear
8:54 AM 50.0 °F 45.0 °F 83% 30.13 in 10.0 mi Calm Calm - N/A   Clear
9:54 AM 55.9 °F 45.0 °F 67% 30.13 in 10.0 mi East 3.5 mph - N/A   Clear
10:54 AM 61.0 °F 45.0 °F 56% 30.14 in 10.0 mi Calm Calm - N/A   Clear
11:54 AM 64.0 °F 41.0 °F 43% 30.13 in 10.0 mi Variable 3.5 mph - N/A   Clear
12:54 PM 68.0 °F 41.0 °F 37% 30.12 in 10.0 mi Variable 6.9 mph - N/A   Clear
1:54 PM 68.0 °F 39.9 °F 36% 30.09 in 10.0 mi WSW 5.8 mph - N/A   Clear
2:54 PM 66.9 °F 39.9 °F 37% 30.06 in 10.0 mi SSE 3.5 mph - N/A   Clear
3:54 PM 66.9 °F 39.9 °F 37% 30.06 in 10.0 mi Variable 3.5 mph - N/A   Clear
4:54 PM 66.9 °F 42.1 °F 40% 30.05 in 10.0 mi SSW 3.5 mph - N/A   Clear
5:54 PM 63.0 °F 46.0 °F 54% 30.04 in 10.0 mi South 3.5 mph - N/A   Clear
6:54 PM 55.9 °F 48.9 °F 77% 30.04 in 10.0 mi Calm Calm - N/A   Clear
7:54 PM 55.0 °F 48.9 °F 80% 30.04 in 10.0 mi Calm Calm - N/A   Clear
8:54 PM 54.0 °F 48.9 °F 83% 30.02 in 10.0 mi Calm Calm - N/A   Clear
9:54 PM 55.0 °F 48.0 °F 77% 30.03 in 10.0 mi Calm Calm - N/A   Mostly Cloudy
10:54 PM 57.9 °F 48.9 °F 72% 30.02 in 10.0 mi Calm Calm - N/A   Overcast
11:54 PM 57.9 °F 50.0 °F 75% 30.00 in 10.0 mi Calm Calm - N/A   Overcast